{"data":{"norad_id":55641,"epoch":"2026-09-20T14:23:29.694336Z","epoch_age_seconds":94393,"freshness":"FRESH","line1":"1 55641U 23021P   26263.59964924  .00000048  00000+0  11808-4 0  9999","line2":"2 55641  70.0007  53.1533 0002887 270.9059  89.1769 14.98331391197980","mean_motion":14.98331391,"eccentricity":0.0002887,"inclination_deg":70.0007,"raan_deg":53.1533,"arg_perigee_deg":270.9059,"mean_anomaly_deg":89.1769,"bstar":1.1808e-5,"rev_number":19798,"period_min":96.106909903218,"perigee_km":570.04506994923,"apogee_km":574.05810884075,"semimajor_km":6950.188589395,"source":"CELESTRAK","updated_at":"2026-09-21T09:00:33.283104Z"}}